OpenBCM V1.13 (Linux)

Packet Radio Mailbox

DB0FHN

[JN59NK Nuernberg]

 Login: GUEST





  
LU9DCE > KEP      14.12.19 20:41l 246 Lines 12125 Bytes #999 (0) @ WW
BID : 5170_LU9DCE
Read: DJ6UX DF7EAV GUEST
Subj: TLE 14 12
Path: DB0FHN<DB0FFL<OE5XBL<OE5XBR<OE1XAB<HG8LXL<XE1FH<LW2DQC<LU9DCE
Sent: 191214/1600Z 5170@LU9DCE.TOR.BA.ARG.SOAM LinBPQ6.0.19

            __    _  _  ___  ____   ___  ____    ____  ____  ____
           (  )  / )( \/ _ \(    \ / __)(  __)  (  _ \(  _ \/ ___)
           / (_/\) \/ (\__  )) D (( (__  ) _)    ) _ ( ) _ (\___ \
           \____/\____/(___/(____/ \___)(____)  (____/(____/(____/
               ESTACION DE PACKET RADIO - BUENOS AIRES (GF05OM)
                   BOLETINES INFORMATIVOS PROGRAMADOS (BIP)
                      LINUX - HELLOCODELINUX@GMAIL.COM
+----------------------------------------------------------------------------+
OSCAR 7
1  7530U 74089B   19347.68849053 -.00000045 +00000-0 +11176-6 0  9992
2  7530 101.7723 313.6898 0012359 005.0728 168.7219 12.53641174062587
OSCAR 11 (UoSAT 2)
1 14781U 84021B   19347.81445036  .00000062  00000-0  13716-4 0  9991
2 14781  97.5992   3.9914 0010010  94.3742 265.8617 14.83127340925162
OSCAR 19 (LUSAT)
1 20442U 90005G   19348.07663553 -.00000008  00000-0  13539-4 0  9990
2 20442  98.6698 289.9340 0011587 349.3503  10.7433 14.32940378561926
EYESAT A
1 22825U 93061C   19347.91417042 -.00000017 +00000-0 +11278-4 0  9992
2 22825 098.9165 340.7402 0008114 193.4329 166.6638 14.30073383367154
ITAMSAT
1 22826U 93061D   19347.80432936 -.00000016 +00000-0 +11594-4 0  9990
2 22826 098.9104 340.5972 0008830 182.4568 177.6571 14.30407856367363
RADIO ROSTO
1 23439U 94085A   19347.87249516 -.00000040  00000-0  73875-4 0  9992
2 23439  64.8130 187.9823 0145875  78.3164 283.4088 11.27569326 28142
JAS 2
1 24278U 96046B   19347.60810055 -.00000056 +00000-0 -23699-4 0  9993
2 24278 098.5633 117.1206 0350975 138.7295 224.0949 13.53095103151615
TECHSAT 1B
1 25397U 98043D   19348.06222947 -.00000015  00000-0  12544-4 0  9994
2 25397  98.7084 286.1837 0000582 181.8786 178.2391 14.23675896113257
ISS (ZARYA)
1 25544U 98067A   19348.59571325 -.00000719  00000-0 -44976-5 0  9996
2 25544  51.6402 186.9100 0007386  34.6821  83.7273 15.50118050203240
PCSAT
1 26931U 01043C   19348.20060338 -.00000005  00000-0  29755-4 0  9994
2 26931  67.0516 263.0343 0007133 264.2533  95.7755 14.30561530950503
SAUDISAT 1C
1 27607U 02058C   19347.79203877 -.00000033  00000-0  16149-4 0  9996
2 27607  64.5546 225.0714 0069813 221.3974 138.1827 14.75594877913314
CUTE-1
1 27844U 03031E   19348.28073946  .00000027  00000-0  31854-4 0  9990
2 27844  98.6835 353.8212 0009040 230.6445 129.3932 14.22210627853672
CUBESAT XI 4
1 27848U 03031J   19348.46467493  .00000018  00000-0  28202-4 0  9991
2 27848  98.6909 354.5366 0008805 243.0545 116.9733 14.21801468853548
MOZHAYETS 4
1 27939U 03042A   19348.43379484  .00000050  00000-0  17508-4 0  9996
2 27939  98.0649 121.0477 0012265 217.1006 142.9362 14.66823394866747
CUBESAT XI 5
1 28895U 05043F   19347.86312140 +.00000106 +00000-0 +29101-4 0  9997
2 28895 097.9834 124.7697 0017587 146.1167 214.1163 14.63719982753311
CUTE-1.7+APD II
1 32785U 08021C   19347.84583007 +.00000188 +00000-0 +25901-4 0  9993
2 32785 097.5590 339.2513 0013977 037.5777 322.6415 14.88388345630117
DELFI C3
1 32789U 08021G   19348.41604448  .00001299  00000-0  89949-4 0  9990
2 32789  97.4433  32.5072 0011123 228.5283 131.4990 15.07319941633883
SEEDS
1 32791U 08021J   19347.96557828  .00000247  00000-0  30355-4 0  9990
2 32791  97.5322 345.4777 0013518  10.6284 349.5218 14.90930890630675
YUBELEINY
1 32953U 08025A   19348.47972955  .00000037  00000-0  19437-3 0  9997
2 32953  82.5056  33.5741 0020395 100.1473 260.1906 12.43092862524527
PRISM (HITOMI)
1 33493U 09002B   19347.89286899 +.00001031 +00000-0 +95444-4 0  9991
2 33493 098.1302 275.6540 0014017 318.2486 041.7664 14.96840479591792
KKS-1 (KISEKI)
1 33499U 09002H   19348.16641437  .00000070  00000-0  18264-4 0  9998
2 33499  98.3337 192.4498 0009225   6.3964 353.7360 14.75487766585545
SWISSCUBE
1 35932U 09051B   19348.44086824  .00000108  00000-0  35353-4 0  9990
2 35932  98.5996 159.8327 0007228 345.3658  14.7328 14.56339321542797
BEESAT
1 35933U 09051C   19348.43329898  .00000079  00000-0  28847-4 0  9998
2 35933  98.6008 161.6515 0005704   1.6631 358.4584 14.56421634542907
ITUPSAT 1
1 35935U 09051E   19347.76953597  .00000055  00000-0  23744-4 0  9999
2 35935  98.6117 161.1895 0007999 358.5890   1.5283 14.55574263542543
XIWANG-1 (HOPE-1)
1 36122U 09072B   19348.19453403 -.00000031  00000-0  29705-4 0  9998
2 36122 100.0805 342.2311 0006972 294.5889  65.4507 13.16352472480367
TISAT 1
1 36799U 10035E   19347.90772928 +.00000249 +00000-0 +31185-4 0  9998
2 36799 098.1750 146.2384 0011524 216.7187 143.3241 14.91224561511122
JUGNU
1 37839U 11058B   19347.68425110  .00000303  00000-0  19820-4 0  9996
2 37839  19.9624 335.3990 0019132 128.9804  27.1510 14.12666704422453
SRMSAT
1 37841U 11058D   19348.45902302  .00000310  00000-0  25495-4 0  9991
2 37841  19.9732  31.1723 0011917   1.5168  26.4719 14.10645519421960
M-CUBED/EXP-1 PRIME
1 37855U 11061F   19348.22939165  .00000854  00000-0  50482-4 0  9999
2 37855 101.7254 335.5908 0172161 267.4512  90.6983 15.05875972443643
HORYU 2
1 38340U 12025D   19348.10033941  .00000130  00000-0  26973-4 0  9999
2 38340  98.3081  31.8441 0010246 275.7953  84.2087 14.75786611407478
STRAND 1
1 39090U 13009E   19347.85562508 +.00000039 +00000-0 +28665-4 0  9990
2 39090 098.4692 190.6786 0010127 116.3872 243.8354 14.35109804355925
SOMP
1 39134U 13015E   19347.88562481 +.00000886 +00000-0 +49057-4 0  9997
2 39134 064.8617 162.9586 0037782 274.2174 085.4636 15.20569362367305
BEESAT 3
1 39135U 13015F   19348.45741692  .00000559  00000-0  36994-4 0  9998
2 39135  64.8649 181.9454 0042621 277.0205  82.6075 15.17786341367377
BEESAT 2
1 39136U 13015G   19347.83771523 +.00000752 +00000-0 +47297-4 0  9999
2 39136 064.8688 188.2991 0030678 283.1475 076.6229 15.17207847366803
CUBEBUG 1
1 39153U 13018D   19348.51594702  .00000183  00000-0  30713-4 0  9992
2 39153  97.9821  85.6789 0016383 343.4228  16.6447 14.80638376358278
ZACUBE
1 39417U 13066B   19348.45994522  .00000169  00000-0  27486-4 0  9992
2 39417  97.5610 351.9038 0059241 166.4516 193.8305 14.81191733327507
TRITON 1
1 39427U 13066M   19348.18871004  .00000128  00000-0  28695-4 0  9990
2 39427  97.7002 314.7652 0112781 314.6074  44.5972 14.67918756324526
GOMX 1
1 39430U 13066Q   19348.37948901  .00000220  00000-0  48392-4 0  9995
2 39430  97.7703 293.3715 0152253  51.1424 310.3251 14.59323108322669
HUMSAT D
1 39433U 13066T   19348.38115185  .00000324  00000-0  36674-4 0  9994
2 39433  97.5320  28.3756 0032054  65.8026 294.6538 14.92325540329727
CUBEBUG 2
1 39440U 13066AA  19347.85439840 +.00000148 +00000-0 +27654-4 0  9992
2 39440 097.6139 335.8841 0079104 225.5391 133.9332 14.75929716325057
FUNCUBE 1
1 39444U 13066AE  19348.09093135  .00000204  00000-0  31345-4 0  9991
2 39444  97.5574 353.6617 0058519 160.7770 199.5670 14.82026277326355
UWE-3
1 39446U 13066AG  19347.68884665 +.00000148 +00000-0 +26355-4 0  9995
2 39446 097.5869 342.8996 0069496 198.0906 161.7832 14.78463732324978
SPROUT
1 39770U 14029E   19348.57347082  .00000397  00000-0  49893-4 0  9999
2 39770  97.8921  90.7997 0008167 212.4743 147.5958 14.87536934301429
UNISAT 6
1 40012U 14033C   19347.93772427 +.00000145 +00000-0 +29109-4 0  9998
2 40012 097.7313 206.6266 0057025 242.1162 117.4264 14.74043880294946
DUCHIFAT 1
1 40021U 14033M   19347.82665292  .00000388  00000-0  45316-4 0  9994
2 40021  97.9321 273.0586 0012723 176.8667 183.2633 14.90760812298088
QB50P1
1 40025U 14033R   19348.05200016  .00000232  00000-0  30575-4 0  9992
2 40025  97.9098 267.4523 0012079 186.3727 173.7338 14.89036843297867
CHUBUSAT 1
1 40300U 14070C   19348.25985507  .00000490  00000-0  24137-4 0  9999
2 40300  97.3128  57.7774 0020767 144.3058 251.5586 15.22285645283187
NUDT-PHONESAT
1 40900U 15049B   19348.48835948  .00001826  00000-0  79691-4 0  9999
2 40900  97.4348 356.1147 0011063 279.8906 227.4166 15.23389131234877
ZDPS 2A
1 40901U 15049C   19348.40883637  .00000867  00000-0  45944-4 0  9998
2 40901  97.4605 351.6886 0012129 306.2261 191.8355 15.17977565234340
ZDPS 2B
1 40902U 15049D   19348.45506549  .00000935  00000-0  49420-4 0  9997
2 40902  97.4568 349.0908 0012265 303.2157 215.0541 15.17881368234326
XW-2A
1 40903U 15049E   19348.41884779  .00001622  00000-0  39450-4 0  9994
2 40903  97.3156  32.0160 0012384 211.8810 245.5512 15.42417880237792
KAITUO 1A
1 40904U 15049F   19348.41650883  .00000589  00000-0  34529-4 0  9995
2 40904  97.4711 347.4305 0013598 313.8619 177.6906 15.15535357234062
OBJECT G
1 40905U 15049G   19348.35740596  .00000107  00000-0  94180-5 0  9996
2 40905  97.4768 344.7425 0014404 308.7689 162.2724 15.14411951233918
XW-2C
1 40906U 15049H   19348.45146036  .00000407  00000-0  24728-4 0  9990
2 40906  97.4716 347.6338 0013602 303.9177 217.2011 15.15857571234076
XW-2D
1 40907U 15049J   19348.39671683  .00000802  00000-0  45105-4 0  9996
2 40907  97.4701 347.2669 0012780 301.2637 168.5596 15.16065794234088
LILACSAT 2
1 40908U 15049K   19348.40219389  .00000555  00000-0  34210-4 0  9990
2 40908  97.4844 345.8823 0014769 309.8075 203.7378 15.13914735233840
XW-2F
1 40910U 15049M   19348.45792512  .00000841  00000-0  45155-4 0  9990
2 40910  97.4646 349.6081 0013320 290.6709 227.2972 15.17591351234126
XW-2B
1 40911U 15049N   19348.44706922  .00000386  00000-0  23572-4 0  9993
2 40911  97.4715 347.9948 0012829 302.0730 218.7310 15.15991210233982
KAITUO 1B
1 40912U 15049P   19348.40341859  .00001044  00000-0  51685-4 0  9992
2 40912  97.4485 353.4745 0013231 269.5358 196.3399 15.19940934234457
TIANWANG 1C (TW-1C)
1 40926U 15051B   19348.38264425  .00012445  00000-0  15719-3 0  9994
2 40926  97.1133  34.5194 0008833  72.3303 298.2245 15.59645037237978
